Location: Sternwarte ZA, Rosenfeld-Brittheim
(48.2889°N, 8.6789°E)
Time: 23:03:17
(UTC+02:00)

Amateur Radio Satellites - All Passes

Search period start: 22 October 2017 22:33
Search period end: 23 October 2017 22:33
Location: Sternwarte ZA, Rosenfeld-Brittheim, 48.2889°N, 8.6789°E

Satellite Date Start Highest point End Downlink Frequencies (MHz)
Time Altitude Azimuth
ESTCUBE 1 22 Oct 22:54:28 22:57:59 23° 63° (ENE) 23:01:31 437.505/2401.250
YUBILEINY 22 Oct 23:01:19 23:08:14 27° 281° (W) 23:15:11 435.215
UNISAT 6 22 Oct 23:02:20 23:06:49 47° 99° (E) 23:11:10 437.425
DELFI C3 22 Oct 23:05:40 23:08:42 21° 267° (W) 23:11:46 145.870
EO-88 22 Oct 23:13:15 23:16:26 28° 264° (W) 23:19:39 145.990 - 145.960
TIGRISAT 22 Oct 23:16:24 23:20:59 59° 101° (E) 23:25:25 435.000
AO-85 22 Oct 23:16:55 23:20:19 21° 246° (WSW) 23:23:53 145.980
FO-29 22 Oct 23:18:56 23:25:34 54° 292° (WNW) 23:32:51 435.910
PRISM 22 Oct 23:22:53 23:26:36 31° 97° (E) 23:30:18 437.425
RS-15 22 Oct 23:27:00 23:35:26 22° 98° (E) 23:43:51 29.354- 29.394
Max Valier Satellite 22 Oct 23:29:54 23:32:09 15° 269° (W) 23:34:25 145.860
LO-87 22 Oct 23:54:11 23:57:45 67° 258° (WSW) 00:01:23 145.935 - 145.965
VELOX 1 23 Oct 00:09:30 00:13:02 24° 63° (ENE) 00:16:35 145.980
ESTCUBE 1 23 Oct 00:30:13 00:34:32 46° 261° (W) 00:38:52 437.505/2401.250
UNISAT 6 23 Oct 00:39:36 00:43:14 23° 298° (WNW) 00:46:48 437.425
SPROUT 23 Oct 00:40:31 00:44:45 64° 73° (ENE) 00:49:02 437.525
AIST 2D 23 Oct 00:47:30 00:51:00 79° 102° (ESE) 00:54:28 435.315
TIGRISAT 23 Oct 00:53:57 00:57:13 19° 300° (WNW) 01:00:26 435.000
PRISM 23 Oct 00:58:16 01:01:47 28° 294° (WNW) 01:05:19 437.425
EO-79 23 Oct 01:04:17 01:08:21 41° 98° (E) 01:12:22 145.935-145.965
FO-29 23 Oct 01:06:12 01:09:21 14° 312° (NW) 01:12:38 435.910
DX 1 23 Oct 01:07:39 01:11:12 25° 64° (ENE) 01:14:47 434.975-435.025
POLYITAN 1 23 Oct 01:09:43 01:13:51 46° 99° (E) 01:17:56 437.675
UKube-1 23 Oct 01:26:18 01:29:51 25° 64° (ENE) 01:33:24 .
QB50P2 23 Oct 01:30:07 01:34:26 84° 104° (ESE) 01:38:41 145.880/145.840
NANOSAT C BR1 23 Oct 01:30:41 01:34:58 69° 103° (ESE) 01:39:10 145.865
50 SAT 23 Oct 01:32:53 01:36:01 43° 71° (ENE) 01:39:09 437.505
RS-15 23 Oct 01:33:35 01:45:49 75° 121° (ESE) 01:58:00 29.354- 29.394
BUGSAT 1 23 Oct 01:38:08 01:41:21 21° 92° (E) 01:44:32 437.445
DUCHIFAT 1 23 Oct 01:39:57 01:44:14 76° 104° (ESE) 01:48:26 145.980
VELOX 1 23 Oct 01:45:08 01:49:17 41° 262° (W) 01:53:28 145.980
Gurwin Techsat 1B 23 Oct 01:51:01 01:53:06 12° 86° (E) 01:55:12 435.225
ITUPSAT 1 23 Oct 01:59:47 02:01:01 11° 52° (NE) 02:02:15 437.325
BEESAT 23 Oct 02:12:05 02:14:34 14° 55° (NE) 02:17:02 436.000
M-CUBED/EXP-1 PRIME 23 Oct 02:16:09 02:17:10 11° 97° (E) 02:18:12 437.505
SPROUT 23 Oct 02:18:39 02:21:05 15° 271° (W) 02:23:32 437.525
Oscar 19 23 Oct 02:36:26 02:41:17 41° 98° (E) 02:46:05 437.125/150
MOZHAYETS 4 23 Oct 02:40:13 02:43:54 24° 63° (ENE) 02:47:36
EO-79 23 Oct 02:40:30 02:43:53 23° 296° (WNW) 02:47:15 145.935-145.965
DX 1 23 Oct 02:43:10 02:47:12 38° 262° (W) 02:51:18 434.975-435.025
POLYITAN 1 23 Oct 02:46:08 02:49:20 21° 297° (WNW) 02:52:31 437.675
UKube-1 23 Oct 03:01:41 03:05:42 38° 262° (W) 03:09:45 .
CUBESAT XI-V 23 Oct 03:01:47 03:02:28 10° 54° (NE) 03:03:10 437.345
50 SAT 23 Oct 03:07:04 03:08:33 12° 269° (W) 03:10:03 437.505
QB50P2 23 Oct 03:07:36 03:09:35 13° 302° (WNW) 03:11:34 145.880/145.840
NANOSAT C BR1 23 Oct 03:07:40 03:10:08 15° 301° (WNW) 03:12:36 145.865
BUGSAT 1 23 Oct 03:12:52 03:16:54 43° 291° (WNW) 03:20:52 437.445
NO-84 23 Oct 03:13:18 03:17:13 35° 136° (SE) 03:21:06 435.350 FM
DUCHIFAT 1 23 Oct 03:17:05 03:19:19 14° 301° (WNW) 03:21:31 145.980
Gurwin Techsat 1B 23 Oct 03:28:33 03:33:55 80° 106° (ESE) 03:39:14 435.225
ITUPSAT 1 23 Oct 03:33:09 03:37:55 65° 71° (ENE) 03:42:42 437.325
BEESAT 23 Oct 03:46:49 03:51:37 87° 77° (ENE) 03:56:27 436.000
RS-15 23 Oct 03:47:22 03:59:18 50° 329° (NNW) 04:11:02 29.354- 29.394
M-CUBED/EXP-1 PRIME 23 Oct 03:48:23 03:51:55 69° 292° (WNW) 03:55:43 437.505
AO-7 23 Oct 04:12:16 04:19:41 35° 96° (E) 04:27:05 .
Oscar 19 23 Oct 04:16:00 04:20:29 31° 297° (WNW) 04:24:57 437.125/150
MOZHAYETS 4 23 Oct 04:16:20 04:20:48 46° 261° (W) 04:25:17
CUBESAT XI-V 23 Oct 04:34:23 04:38:58 67° 73° (ENE) 04:43:34 437.345
NO-84 23 Oct 04:50:16 04:54:32 60° 335° (NNW) 04:58:40 435.350 FM
O/OREOS (USA 219) 23 Oct 04:51:03 04:53:45 15° 43° (NE) 04:56:25 437.305
ITAMSAT 1 23 Oct 04:53:55 04:59:01 49° 100° (E) 05:04:05 435.822/435.867
Gurwin Techsat 1B 23 Oct 05:09:39 05:13:15 19° 303° (WNW) 05:16:49 435.225
ITUPSAT 1 23 Oct 05:12:58 05:16:11 18° 270° (W) 05:19:25 437.325
KKS-1 23 Oct 05:23:33 05:27:57 66° 72° (ENE) 05:32:23 437.445
BEESAT 23 Oct 05:27:54 05:30:03 13° 273° (W) 05:32:11 436.000
STARS 23 Oct 05:48:36 05:52:51 51° 70° (ENE) 05:57:09 437.465
RS-15 23 Oct 06:04:18 06:15:22 36° 2° (N) 06:26:03 29.354- 29.394
AO-7 23 Oct 06:04:46 06:12:57 64° 296° (WNW) 06:21:07 .
DOVE 4 23 Oct 06:11:54 06:16:41 43° 98° (E) 06:21:38 437.250
CUBESAT XI-V 23 Oct 06:14:01 06:16:48 16° 271° (W) 06:19:37 437.345
NO-84 23 Oct 06:28:41 06:32:31 32° 355° (N) 06:36:11 435.350 FM
O/OREOS (USA 219) 23 Oct 06:29:17 06:33:56 83° 66° (ENE) 06:38:31 437.305
STRAND 1 23 Oct 06:32:25 06:36:05 20° 58° (ENE) 06:39:46 437.568
SO-50 23 Oct 06:32:44 06:36:23 25° 115° (ESE) 06:40:04 436.795
ITAMSAT 1 23 Oct 06:33:50 06:38:15 28° 298° (WNW) 06:42:38 435.822/435.867
XW-2F 23 Oct 06:38:25 06:40:38 15° 91° (E) 06:42:50 145.980 - 146.000
NUDT-PHONESAT 23 Oct 06:41:51 06:43:22 12° 89° (E) 06:44:53 437.300
LilacSat-2 23 Oct 06:49:01 06:52:01 22° 94° (E) 06:55:01 437.200
XW-2D 23 Oct 06:52:26 06:55:30 23° 94° (E) 06:58:32 145.860 - 145.880
HO-68 23 Oct 06:57:18 07:00:44 14° 84° (E) 07:04:09 435.675
KKS-1 23 Oct 07:02:22 07:04:58 15° 271° (W) 07:07:33 437.445
XW-2B 23 Oct 07:05:46 07:09:09 31° 96° (E) 07:12:30 145.730 - 145.750
CUTE-I 23 Oct 07:22:42 07:27:48 41° 98° (E) 07:32:52 437.470
STARS 23 Oct 07:26:19 07:29:28 19° 268° (W) 07:32:41 437.465
XW-2C 23 Oct 07:28:59 07:32:42 59° 101° (E) 07:36:23 145.795 - 145.815
CUBEBUG 2 23 Oct 07:40:29 07:42:38 13° 86° (E) 07:44:47 437.445
CUTE 1.7 + AOD 2 23 Oct 07:45:42 07:49:00 22° 93° (E) 07:52:16 437.475
SEEDS 23 Oct 07:47:56 07:50:18 15° 89° (E) 07:52:41 437.485
DOVE 4 23 Oct 07:49:54 07:54:13 30° 295° (WNW) 07:58:40 437.250
FO-29 23 Oct 07:52:30 07:56:26 21° 54° (NE) 08:00:37 435.910
AO-7 23 Oct 07:58:45 08:04:14 20° 319° (NW) 08:09:43 .
KAITUO 1B 23 Oct 08:04:32 08:08:14 72° 285° (WNW) 08:11:54 145.475/437.950
NO-84 23 Oct 08:06:43 08:10:38 40° 16° (NNE) 08:14:18 435.350 FM
STRAND 1 23 Oct 08:09:38 08:14:45 70° 257° (WSW) 08:19:55 437.568
O/OREOS (USA 219) 23 Oct 08:10:37 08:12:38 13° 263° (W) 08:14:39 437.305
XW-2F 23 Oct 08:11:25 08:15:01 47° 288° (WNW) 08:18:35 145.980 - 146.000
UWE-3 23 Oct 08:12:07 08:14:48 15° 88° (E) 08:17:26 435.000/436.395/437.385
SO-50 23 Oct 08:12:13 08:16:35 51° 315° (NW) 08:21:01 436.795
NUDT-PHONESAT 23 Oct 08:14:00 08:17:36 57° 287° (WNW) 08:21:10 437.300
YUBILEINY 23 Oct 08:16:31 08:21:50 18° 73° (ENE) 08:27:09 435.215
RS-15 23 Oct 08:19:19 08:31:12 54° 35° (NE) 08:42:26 29.354- 29.394
LilacSat-2 23 Oct 08:22:59 08:26:21 31° 291° (WNW) 08:29:42 437.200
XW-2D 23 Oct 08:26:24 08:29:41 30° 292° (WNW) 08:32:59 145.860 - 145.880
UNISAT 6 23 Oct 08:32:12 08:32:50 10° 53° (NE) 08:33:27 437.425
PCSat 23 Oct 08:33:50 08:39:05 52° 117° (ESE) 08:44:21 145.827
XW-2B 23 Oct 08:40:11 08:43:12 23° 294° (WNW) 08:46:10 145.730 - 145.750
HO-68 23 Oct 08:42:34 08:49:48 69° 104° (ESE) 08:56:58 435.675
TIGRISAT 23 Oct 08:44:41 08:46:39 13° 56° (NE) 08:48:37 435.000
AO-73 23 Oct 08:55:01 08:58:12 20° 91° (E) 09:01:19 145.935
XW-2A 23 Oct 09:02:27 09:05:43 49° 100° (E) 09:08:57 145.665 - 145.685
CUTE-I 23 Oct 09:02:58 09:07:45 33° 296° (WNW) 09:12:31 437.470
XW-2C 23 Oct 09:04:29 09:06:26 14° 299° (WNW) 09:08:23 145.795 - 145.815
nSIGHT-1 23 Oct 09:09:58 09:11:00 11° 134° (SE) 09:12:00 .
CUBEBUG 2 23 Oct 09:15:13 09:19:54 80° 284° (WNW) 09:24:23 437.445
ZACube-1 23 Oct 09:18:18 09:22:23 37° 96° (E) 09:26:20 437.345
CUTE 1.7 + AOD 2 23 Oct 09:21:02 09:24:59 40° 290° (WNW) 09:28:55 437.475
SEEDS 23 Oct 09:22:16 09:26:23 60° 288° (WNW) 09:30:30 437.485
FO-29 23 Oct 09:35:32 09:40:50 74° 257° (WSW) 09:46:42 435.910
AAUSAT CUBESAT 2 23 Oct 09:37:09 09:41:18 90° 236° (WSW) 09:45:26 437.432
NO-84 23 Oct 09:44:17 09:48:13 62° 218° (SW) 09:51:52 435.350 FM
UWE-3 23 Oct 09:47:15 09:51:44 64° 287° (WNW) 09:56:04 435.000/436.395/437.385
ISS 23 Oct 09:48:36 09:51:07 21° 140° (SE) 09:53:38 437.550
Oscar 11 23 Oct 09:49:43 09:53:54 48° 99° (E) 09:58:03 .
SO-50 23 Oct 09:55:23 09:58:05 15° 337° (NNW) 10:00:47 436.795
UNISAT 6 23 Oct 10:03:58 10:08:36 63° 72° (ENE) 10:13:16 437.425
YUBILEINY 23 Oct 10:08:27 10:17:07 78° 96° (E) 10:25:52 435.215
PRISM 23 Oct 10:15:18 10:19:02 36° 68° (ENE) 10:22:47 437.425
PCSat 23 Oct 10:17:48 10:22:43 34° 318° (NW) 10:27:39 145.827
TIGRISAT 23 Oct 10:17:52 10:22:32 79° 75° (ENE) 10:27:17 435.000
AO-73 23 Oct 10:30:31 10:34:42 46° 290° (WNW) 10:38:46 145.935
HO-68 23 Oct 10:30:57 10:37:01 31° 305° (NW) 10:43:05 435.675
RS-15 23 Oct 10:32:26 10:44:11 65° 242° (WSW) 10:55:17 29.354- 29.394
XW-2A 23 Oct 10:36:27 10:38:02 13° 298° (WNW) 10:39:36 145.665 - 145.685
DELFI C3 23 Oct 10:37:39 10:41:18 35° 97° (E) 10:44:58 145.870
EO-88 23 Oct 10:38:12 10:40:48 18° 92° (E) 10:43:22 145.990 - 145.960
nSIGHT-1 23 Oct 10:43:34 10:46:42 59° 152° (SSE) 10:49:53 .
QB50P2 23 Oct 10:52:46 10:54:48 13° 58° (ENE) 10:56:49 145.880/145.840
NANOSAT C BR1 23 Oct 10:53:46 10:54:58 11° 56° (NE) 10:56:10 145.865
CUBEBUG 2 23 Oct 10:53:51 10:55:41 12° 305° (NW) 10:57:29 437.445
Max Valier Satellite 23 Oct 10:54:19 10:57:46 37° 98° (E) 11:01:11 145.860
ZACube-1 23 Oct 10:54:52 10:58:30 26° 295° (WNW) 11:02:03 437.345
DUCHIFAT 1 23 Oct 11:02:20 11:03:55 12° 57° (ENE) 11:05:30 145.980
AAUSAT CUBESAT 2 23 Oct 11:14:43 11:16:05 11° 302° (WNW) 11:17:28 437.432
ISS 23 Oct 11:24:00 11:27:16 85° 338° (NNW) 11:30:33 437.550
NO-84 23 Oct 11:24:14 11:24:47 10° 237° (WSW) 11:25:20 435.350 FM
AIST 2D 23 Oct 11:24:46 11:28:08 47° 73° (ENE) 11:31:31 435.315
FO-29 23 Oct 11:26:12 11:27:16 11° 279° (W) 11:28:21 435.910
Oscar 11 23 Oct 11:26:32 11:29:44 21° 297° (WNW) 11:32:55 .
SO-50 23 Oct 11:39:55 11:40:29 10° 2° (N) 11:41:04 436.795
UNISAT 6 23 Oct 11:42:37 11:45:44 17° 271° (W) 11:48:51 437.425
PRISM 23 Oct 11:51:10 11:54:24 23° 266° (W) 11:57:41 437.425
TIGRISAT 23 Oct 11:57:21 11:59:48 14° 273° (W) 12:02:16 435.000
EO-79 23 Oct 11:59:41 12:03:48 49° 71° (ENE) 12:07:58 145.935-145.965
POLYITAN 1 23 Oct 12:05:14 12:09:25 55° 71° (ENE) 12:13:38 437.675
PCSat 23 Oct 12:05:22 12:07:50 13° 342° (NNW) 12:10:17 145.827
BEESAT 2 23 Oct 12:06:57 12:08:39 12° 110° (ESE) 12:10:20 435.950
YUBILEINY 23 Oct 12:07:41 12:14:55 28° 299° (WNW) 12:22:15 435.215
EO-88 23 Oct 12:11:13 12:14:35 36° 290° (WNW) 12:17:56 145.990 - 145.960
DELFI C3 23 Oct 12:12:43 12:15:54 23° 295° (WNW) 12:19:03 145.870
BEESAT 3 23 Oct 12:13:53 12:17:40 42° 121° (ESE) 12:21:30 437.485
ESTCUBE 1 23 Oct 12:18:54 12:22:47 28° 95° (E) 12:26:38 437.505/2401.250
nSIGHT-1 23 Oct 12:19:57 12:23:04 48° 351° (N) 12:26:12 .
Oscar 19 23 Oct 12:20:27 12:23:20 15° 55° (NE) 12:26:13 437.125/150
QB50P2 23 Oct 12:25:40 12:29:57 84° 255° (WSW) 12:34:17 145.880/145.840
NANOSAT C BR1 23 Oct 12:25:40 12:29:56 80° 73° (ENE) 12:34:14 145.865
Max Valier Satellite 23 Oct 12:28:42 12:31:21 19° 296° (WNW) 12:33:59 145.860
BUGSAT 1 23 Oct 12:30:59 12:34:24 24° 64° (ENE) 12:37:52 437.445
DUCHIFAT 1 23 Oct 12:34:38 12:38:53 87° 80° (E) 12:43:11 145.980
RS-15 23 Oct 12:47:35 12:53:57 17° 266° (W) 13:00:12 29.354- 29.394
LO-87 23 Oct 12:50:30 12:54:09 89° 92° (E) 12:57:46 145.935 - 145.965
AIST 2D 23 Oct 12:59:49 13:01:35 13° 270° (W) 13:03:21 435.315
ISS 23 Oct 13:00:50 13:03:58 44° 358° (N) 13:07:08 437.550
M-CUBED/EXP-1 PRIME 23 Oct 13:04:19 13:07:00 23° 61° (ENE) 13:09:39 437.505
Gurwin Techsat 1B 23 Oct 13:14:33 13:19:05 30° 62° (ENE) 13:23:38 435.225
SO-50 23 Oct 13:19:37 13:22:48 18° 27° (NNE) 13:25:59 436.795
AO-7 23 Oct 13:26:19 13:31:48 20° 41° (NE) 13:37:18 .
VELOX 1 23 Oct 13:31:13 13:35:03 28° 95° (E) 13:38:52 145.980
AO-85 23 Oct 13:33:57 13:37:44 53° 122° (ESE) 13:41:39 145.980
EO-79 23 Oct 13:36:46 13:39:49 19° 268° (W) 13:42:54 145.935-145.965
BEESAT 2 23 Oct 13:41:43 13:45:45 84° 309° (NW) 13:49:51 435.950
POLYITAN 1 23 Oct 13:42:44 13:45:32 17° 270° (W) 13:48:22 437.675
BEESAT 3 23 Oct 13:51:49 13:55:21 29° 320° (NW) 13:58:55 437.485
PCSat 23 Oct 13:52:23 13:53:49 11° 9° (N) 13:55:15 145.827
ESTCUBE 1 23 Oct 13:55:32 13:59:38 35° 293° (WNW) 14:03:42 437.505/2401.250
nSIGHT-1 23 Oct 13:56:31 13:59:40 51° 12° (NNE) 14:02:49 .
Oscar 19 23 Oct 13:56:45 14:01:55 85° 73° (ENE) 14:07:06 437.125/150
SPROUT 23 Oct 13:58:01 14:02:21 74° 103° (ESE) 14:06:37 437.525
NANOSAT C BR1 23 Oct 14:04:41 14:06:12 12° 273° (W) 14:07:43 145.865
BUGSAT 1 23 Oct 14:05:38 14:09:34 38° 262° (W) 14:13:34 437.445
DUCHIFAT 1 23 Oct 14:14:15 14:15:10 11° 273° (W) 14:16:04 145.980
50 SAT 23 Oct 14:20:24 14:23:07 23° 96° (E) 14:25:48 437.505
DX 1 23 Oct 14:27:27 14:31:12 27° 95° (E) 14:34:54 434.975-435.025
ISS 23 Oct 14:37:27 14:40:44 70° 19° (NNE) 14:44:00 437.550
ITAMSAT 1 23 Oct 14:38:18 14:41:51 19° 57° (ENE) 14:45:24 435.822/435.867
M-CUBED/EXP-1 PRIME 23 Oct 14:38:40 14:41:25 24° 258° (WSW) 14:44:08 437.505
UKube-1 23 Oct 14:44:50 14:48:28 26° 95° (E) 14:52:06 .
Gurwin Techsat 1B 23 Oct 14:53:44 14:58:50 46° 261° (W) 15:03:58 435.225
SO-50 23 Oct 14:59:29 15:04:04 67° 48° (NE) 15:08:43 436.795
VELOX 1 23 Oct 15:07:30 15:11:33 36° 293° (WNW) 15:15:36 145.980
AO-7 23 Oct 15:14:57 15:23:06 65° 64° (ENE) 15:31:17 .
AO-85 23 Oct 15:15:08 15:18:24 24° 324° (NW) 15:21:47 145.980
BEESAT 2 23 Oct 15:21:19 15:24:06 18° 329° (NNW) 15:26:54 435.950
ITUPSAT 1 23 Oct 15:31:50 15:33:48 12° 87° (E) 15:35:45 437.325
nSIGHT-1 23 Oct 15:32:52 15:35:58 48° 210° (SSW) 15:39:04 .
PCSat 23 Oct 15:35:00 15:39:20 23° 35° (NE) 15:43:38 145.827
SPROUT 23 Oct 15:35:18 15:37:41 15° 301° (WNW) 15:40:03 437.525
Oscar 19 23 Oct 15:39:09 15:41:54 14° 272° (W) 15:44:41 437.125/150
BEESAT 23 Oct 15:44:15 15:47:18 17° 90° (E) 15:50:22 436.000
50 SAT 23 Oct 15:52:38 15:55:21 24° 293° (WNW) 15:58:03 437.505
DX 1 23 Oct 16:03:25 16:07:26 36° 293° (WNW) 16:11:26 434.975-435.025
MOZHAYETS 4 23 Oct 16:07:34 16:11:39 31° 95° (E) 16:15:40
ISS 23 Oct 16:14:09 16:17:01 28° 217° (SW) 16:19:51 437.550
ITAMSAT 1 23 Oct 16:15:31 16:20:43 78° 256° (WSW) 16:25:58 435.822/435.867
UKube-1 23 Oct 16:20:35 16:24:34 36° 293° (WNW) 16:28:32 .
CUBESAT XI-V 23 Oct 16:28:52 16:30:52 13° 87° (E) 16:32:53 437.345
SO-50 23 Oct 16:40:49 16:44:06 20° 247° (WSW) 16:47:25 436.795
ITUPSAT 1 23 Oct 17:07:29 17:12:19 89° 286° (WNW) 17:17:06 437.325
AO-7 23 Oct 17:09:02 17:16:22 34° 264° (W) 17:23:46 .
CUTE-I 23 Oct 17:10:47 17:14:08 17° 55° (NE) 17:17:30 437.470
PCSat 23 Oct 17:17:59 17:23:27 89° 240° (WSW) 17:28:53 145.827
BEESAT 23 Oct 17:20:48 17:25:34 67° 288° (WNW) 17:30:17 436.000
DOVE 4 23 Oct 17:21:07 17:25:17 57° 72° (ENE) 17:29:43 437.250
XW-2F 23 Oct 17:23:11 17:25:07 14° 61° (ENE) 17:27:05 145.980 - 146.000
NUDT-PHONESAT 23 Oct 17:25:15 17:26:16 11° 59° (ENE) 17:27:16 437.300
HO-68 23 Oct 17:30:21 17:35:04 19° 47° (NE) 17:39:48 435.675
LilacSat-2 23 Oct 17:34:29 17:37:19 20° 65° (ENE) 17:40:10 437.200
XW-2D 23 Oct 17:37:13 17:40:05 21° 65° (ENE) 17:42:56 145.860 - 145.880
MOZHAYETS 4 23 Oct 17:44:41 17:48:48 34° 294° (WNW) 17:52:54
XW-2B 23 Oct 17:50:22 17:53:35 27° 67° (ENE) 17:56:47 145.730 - 145.750
ITAMSAT 1 23 Oct 17:59:23 18:01:03 11° 274° (W) 18:02:43 435.822/435.867
CUBESAT XI-V 23 Oct 18:04:13 18:08:51 83° 285° (WNW) 18:13:28 437.345
XW-2C 23 Oct 18:13:18 18:16:57 47° 72° (ENE) 18:20:36 145.795 - 145.815
YUBILEINY 23 Oct 18:19:35 18:22:52 12° 44° (NE) 18:26:09 435.215
CUBEBUG 2 23 Oct 18:41:17 18:44:36 19° 60° (ENE) 18:47:55 437.445
CUTE 1.7 + AOD 2 23 Oct 18:41:42 18:45:10 25° 65° (ENE) 18:48:37 437.475
AO-85 23 Oct 18:42:11 18:42:46 10° 14° (NNE) 18:43:22 145.980
SEEDS 23 Oct 18:43:04 18:45:48 17° 62° (ENE) 18:48:32 437.485
ITUPSAT 1 23 Oct 18:46:52 18:49:26 15° 304° (NW) 18:52:00 437.325
KKS-1 23 Oct 18:46:59 18:51:31 79° 104° (ESE) 18:56:00 437.445
KAITUO 1B 23 Oct 18:47:21 18:51:04 87° 75° (ENE) 18:54:49 145.475/437.950
CUTE-I 23 Oct 18:48:09 18:53:28 88° 249° (WSW) 18:58:52 437.470
BEESAT 3 23 Oct 18:50:10 18:52:52 17° 31° (NNE) 18:55:32 437.485
XW-2F 23 Oct 18:55:04 18:58:47 60° 259° (W) 19:02:31 145.980 - 146.000
NUDT-PHONESAT 23 Oct 18:55:50 18:59:33 78° 257° (WSW) 19:03:16 437.300
AAUSAT CUBESAT 2 23 Oct 18:58:04 18:59:31 12° 58° (ENE) 19:00:58 437.432
DOVE 4 23 Oct 19:00:45 19:03:27 16° 272° (W) 19:06:15 437.250
BEESAT 23 Oct 19:01:04 19:02:26 11° 307° (NW) 19:03:49 436.000
PCSat 23 Oct 19:02:58 19:06:04 16° 256° (WSW) 19:09:09 145.827
LilacSat-2 23 Oct 19:07:48 19:11:22 38° 262° (W) 19:14:57 437.200
STARS 23 Oct 19:10:09 19:14:33 58° 102° (ESE) 19:18:55 437.465
XW-2D 23 Oct 19:10:31 19:14:02 36° 263° (W) 19:17:34 145.860 - 145.880
UWE-3 23 Oct 19:11:56 19:15:28 22° 62° (ENE) 19:19:00 435.000/436.395/437.385
HO-68 23 Oct 19:14:31 19:21:39 73° 69° (ENE) 19:28:51 435.675
XW-2B 23 Oct 19:24:26 19:27:42 27° 265° (W) 19:30:58 145.730 - 145.750
XW-2A 23 Oct 19:36:48 19:39:48 29° 69° (ENE) 19:42:49 145.665 - 145.685
CUBESAT XI-V 23 Oct 19:43:34 19:45:29 12° 304° (NW) 19:47:24 437.345
XW-2C 23 Oct 19:49:05 19:51:23 15° 269° (W) 19:53:42 145.795 - 145.815
AO-73 23 Oct 19:53:23 19:57:09 26° 65° (ENE) 20:00:55 145.935
YUBILEINY 23 Oct 20:14:01 20:22:29 48° 71° (ENE) 20:30:55 435.215
CUBEBUG 2 23 Oct 20:16:01 20:20:42 65° 259° (W) 20:25:29 437.445
STRAND 1 23 Oct 20:16:36 20:21:10 31° 95° (E) 20:25:41 437.568
ZACube-1 23 Oct 20:16:50 20:21:13 46° 70° (ENE) 20:25:35 437.345
CUTE 1.7 + AOD 2 23 Oct 20:16:57 20:20:51 36° 263° (W) 20:24:46 437.475
SEEDS 23 Oct 20:16:59 20:21:05 56° 260° (W) 20:25:12 437.485
BEESAT 2 23 Oct 20:18:36 20:22:12 29° 40° (NE) 20:25:45 435.950
AO-85 23 Oct 20:20:51 20:24:37 27° 38° (NE) 20:28:37 145.980
KKS-1 23 Oct 20:24:57 20:27:29 15° 302° (WNW) 20:29:59 437.445
BEESAT 3 23 Oct 20:27:01 20:31:02 84° 52° (NE) 20:34:57 437.485
AAUSAT CUBESAT 2 23 Oct 20:30:13 20:34:19 88° 249° (WSW) 20:38:27 437.432
CUTE-I 23 Oct 20:31:40 20:34:18 14° 273° (W) 20:36:57 437.470
FO-29 23 Oct 20:40:28 20:44:43 16° 85° (E) 20:49:08 435.910
O/OREOS (USA 219) 23 Oct 20:45:05 20:49:27 47° 109° (ESE) 20:53:53 437.305
UWE-3 23 Oct 20:46:59 20:51:33 54° 260° (W) 20:56:10 435.000/436.395/437.385
STARS 23 Oct 20:47:22 20:50:28 19° 300° (WNW) 20:53:34 437.465
Oscar 11 23 Oct 20:47:35 20:51:50 57° 72° (ENE) 20:56:05 .
HO-68 23 Oct 21:04:15 21:10:02 26° 269° (W) 21:15:52 435.675
XW-2A 23 Oct 21:10:01 21:12:34 19° 267° (W) 21:15:07 145.665 - 145.685
EO-88 23 Oct 21:19:46 21:21:55 15° 62° (ENE) 21:24:04 145.990 - 145.960
DELFI C3 23 Oct 21:26:11 21:29:41 32° 68° (ENE) 21:33:13 145.870
AO-73 23 Oct 21:28:52 21:33:11 41° 263° (W) 21:37:30 145.935
Max Valier Satellite 23 Oct 21:36:22 21:39:38 29° 68° (ENE) 21:42:55 145.860
ZACube-1 23 Oct 21:54:06 21:57:42 22° 268° (W) 22:01:18 437.345
UNISAT 6 23 Oct 21:54:54 21:55:43 10° 85° (E) 21:56:30 437.425
STRAND 1 23 Oct 21:55:37 22:00:27 41° 293° (WNW) 22:05:15 437.568
BEESAT 2 23 Oct 21:56:13 22:00:03 41° 239° (WSW) 22:03:49 435.950
AO-85 23 Oct 22:00:52 22:05:19 61° 236° (SW) 22:10:07 145.980
BEESAT 3 23 Oct 22:06:28 22:07:56 12° 250° (WSW) 22:09:24 437.485
TIGRISAT 23 Oct 22:07:29 22:09:40 13° 87° (E) 22:11:50 435.000
YUBILEINY 23 Oct 22:11:04 22:19:17 46° 273° (W) 22:27:31 435.215
O/OREOS (USA 219) 23 Oct 22:25:15 22:29:06 26° 309° (NW) 22:32:58 437.305
Oscar 11 23 Oct 22:25:34 22:28:19 16° 270° (W) 22:31:06 .
